Tracking 29892 objects as of 21-Nov-2024
HD Live streaming from Space Station
objects crossing your sky now

STARLINK-32020

Track STARLINK-32020 now!
10-day predictions
STARLINK-32020 is classified as:


NORAD ID: 60201
Int'l Code: 2024-124U
Perigee: 453.5 km
Apogee: 455.5 km
Inclination: 53.2 °
Period: 93.5 minutes
Semi major axis: 6825 km
RCS: Unknown
Launch date: July 3, 2024
Source: United States (US)
Launch site: AIR FORCE EASTERN TEST RANGE (AFETR)
Your satellite tracking list
Your tracking list is empty




NASA's NSSDC Master Catalog

Two Line Element Set (TLE):
1 60201U 24124U   24326.11211387  .00025718  00000-0  65172-3 0  9990
2 60201  53.1565   3.2927 0001418 107.2466 252.8694 15.39575328 22973
Source of the keplerian elements: AFSPC